• In Hungary
  • List of Countries
  • For 7 days
  • Water Temperature
  • Satellite Maps
  • Weather Map
  • News
  • Weather Widgets
  • user-avatar
    Login

    Hourly Weather Sankt Wolfgang im Salzkammergut

    Today, 18 October, Wednesday

    Time Temperature Precipitation Wind Pressure Humidity
    00:00 +12°C° 0 mm 1 mps 713 mmHg 67%
    01:00 +12°C° 0 mm 1 mps 713 mmHg 66%
    02:00 +11°C° 0 mm 1 mps 713 mmHg 65%
    03:00 +11°C° 0 mm 1 mps 713 mmHg 63%
    04:00 +11°C° 0 mm 1 mps 712 mmHg 62%
    05:00 +11°C° 0 mm 1 mps 712 mmHg 62%
    06:00 +11°C° 0 mm 1 mps 712 mmHg 61%
    07:00 +11°C° 0 mm 1 mps 712 mmHg 61%
    08:00 +13°C° 0 mm 1 mps 712 mmHg 56%
    09:00 +16°C° 0 mm 1 mps 712 mmHg 51%
    10:00 +17°C° 0 mm 0 mps 712 mmHg 46%
    11:00 +20°C° 0 mm 1 mps 712 mmHg 46%
    12:00 +21°C° 0 mm 1 mps 712 mmHg 46%
    13:00 +22°C° 0 mm 1 mps 712 mmHg 46%
    14:00 +21°C° 0 mm 1 mps 711 mmHg 53%
    15:00 +20°C° 0 mm 1 mps 711 mmHg 60%
    16:00 +19°C° 0 mm 1 mps 710 mmHg 67%
    17:00 +16°C° 0 mm 1 mps 710 mmHg 73%
    18:00 +14°C° 0 mm 1 mps 710 mmHg 79%
    19:00 +13°C° 0 mm 1 mps 710 mmHg 86%
    20:00 +12°C° 0 mm 1 mps 711 mmHg 85%
    21:00 +12°C° 0 mm 1 mps 711 mmHg 85%
    22:00 +11°C° 0 mm 1 mps 711 mmHg 84%
    23:00 +11°C° 0 mm 1 mps 711 mmHg 83%

    Tomorrow, 19 October, Thursday

    Time Temperature Precipitation Wind Pressure Humidity
    00:00 +11°C° 0 mm 1 mps 711 mmHg 82%
    01:00 +11°C° 0 mm 1 mps 711 mmHg 81%
    02:00 +10°C° 0 mm 1 mps 711 mmHg 80%
    03:00 +10°C° 0 mm 1 mps 710 mmHg 80%
    04:00 +10°C° 0 mm 1 mps 710 mmHg 79%
    05:00 +10°C° 0 mm 1 mps 710 mmHg 78%
    06:00 +10°C° 0 mm 1 mps 710 mmHg 77%
    07:00 +10°C° 0 mm 1 mps 711 mmHg 76%
    08:00 +12°C° 0 mm 1 mps 711 mmHg 69%
    09:00 +14°C° 0 mm 0 mps 711 mmHg 62%
    10:00 +17°C° 0 mm 0 mps 711 mmHg 55%
    11:00 +20°C° 0 mm 1 mps 711 mmHg 53%
    12:00 +21°C° 0 mm 1 mps 711 mmHg 52%
    13:00 +21°C° 0 mm 1 mps 711 mmHg 50%
    14:00 +21°C° 0 mm 1 mps 710 mmHg 57%
    15:00 +20°C° 0 mm 1 mps 710 mmHg 63%
    16:00 +19°C° 0 mm 1 mps 710 mmHg 69%
    17:00 +16°C° 0 mm 1 mps 710 mmHg 74%
    18:00 +14°C° 0 mm 1 mps 710 mmHg 80%
    19:00 +12°C° 0 mm 1 mps 710 mmHg 85%
    20:00 +12°C° 0 mm 1 mps 710 mmHg 84%
    21:00 +11°C° 0 mm 1 mps 710 mmHg 83%
    22:00 +11°C° 0 mm 1 mps 710 mmHg 82%
    23:00 +11°C° 0 mm 1 mps 710 mmHg 82%

    Day after tomorrow, 20 October, Friday

    Time Temperature Precipitation Wind Pressure Humidity
    00:00 +11°C° 0 mm 1 mps 710 mmHg 81%
    01:00 +10°C° 0 mm 1 mps 710 mmHg 80%
    02:00 +10°C° 0 mm 1 mps 710 mmHg 80%
    03:00 +10°C° 0 mm 1 mps 710 mmHg 80%
    04:00 +10°C° 0 mm 1 mps 710 mmHg 79%
    05:00 +9°C° 0 mm 1 mps 710 mmHg 78%
    06:00 +9°C° 0 mm 1 mps 710 mmHg 78%
    07:00 +9°C° 0 mm 1 mps 710 mmHg 77%
    08:00 +12°C° 0 mm 1 mps 711 mmHg 68%
    09:00 +15°C° 0 mm 1 mps 711 mmHg 60%
    10:00 +18°C° 0 mm 1 mps 711 mmHg 52%
    11:00 +19°C° 0 mm 1 mps 711 mmHg 50%
    12:00 +20°C° 0 mm 1 mps 711 mmHg 48%
    13:00 +21°C° 0 mm 1 mps 711 mmHg 46%
    14:00 +20°C° 0 mm 1 mps 711 mmHg 53%
    15:00 +19°C° 0 mm 1 mps 711 mmHg 61%
    16:00 +18°C° 0 mm 1 mps 711 mmHg 68%
    17:00 +15°C° 0 mm 1 mps 711 mmHg 75%
    18:00 +14°C° 0 mm 1 mps 711 mmHg 81%
    19:00 +12°C° 0 mm 1 mps 712 mmHg 88%
    20:00 +11°C° 0 mm 1 mps 712 mmHg 87%
    21:00 +11°C° 0 mm 1 mps 712 mmHg 85%
    22:00 +11°C° 0 mm 1 mps 712 mmHg 84%
    23:00 +11°C° 0 mm 1 mps 712 mmHg 81%

    21 October, Saturday

    Time Temperature Precipitation Wind Pressure Humidity
    00:00 +11°C° 0 mm 1 mps 712 mmHg 78%
    01:00 +11°C° 0 mm 1 mps 712 mmHg 76%
    02:00 +11°C° 0 mm 1 mps 712 mmHg 74%
    03:00 +11°C° 0 mm 1 mps 712 mmHg 72%
    04:00 +11°C° 0 mm 1 mps 712 mmHg 69%
    05:00 +11°C° 0 mm 1 mps 712 mmHg 68%
    06:00 +11°C° 0 mm 1 mps 712 mmHg 68%
    07:00 +11°C° 0 mm 1 mps 713 mmHg 67%
    08:00 +13°C° 0 mm 1 mps 713 mmHg 63%
    09:00 +15°C° 0 mm 1 mps 713 mmHg 59%
    10:00 +18°C° 0 mm 1 mps 713 mmHg 55%
    11:00 +20°C° 0 mm 1 mps 713 mmHg 53%
    12:00 +21°C° 0 mm 1 mps 713 mmHg 51%
    13:00 +22°C° 0 mm 1 mps 712 mmHg 49%
    14:00 +21°C° 0 mm 1 mps 712 mmHg 56%
    15:00 +20°C° 0 mm 1 mps 712 mmHg 62%
    16:00 +19°C° 0 mm 1 mps 712 mmHg 69%
    17:00 +16°C° 0 mm 1 mps 712 mmHg 74%
    18:00 +15°C° 0 mm 1 mps 712 mmHg 78%
    19:00 +13°C° 0 mm 1 mps 712 mmHg 83%
    20:00 +13°C° 0 mm 1 mps 712 mmHg 84%
    21:00 +12°C° 0 mm 1 mps 712 mmHg 85%
    22:00 +12°C° 0 mm 1 mps 712 mmHg 85%
    23:00 +12°C° 0 mm 1 mps 712 mmHg 87%

    22 October, Sunday

    Time Temperature Precipitation Wind Pressure Humidity
    00:00 +11°C° 0 mm 1 mps 712 mmHg 88%
    01:00 +11°C° 0 mm 1 mps 712 mmHg 89%
    02:00 +11°C° 0 mm 1 mps 712 mmHg 90%
    03:00 +11°C° 0 mm 1 mps 711 mmHg 91%
    04:00 +11°C° 0 mm 1 mps 711 mmHg 91%
    05:00 +11°C° 0.5 mm 1 mps 711 mmHg 92%
    06:00 +11°C° 0.5 mm 1 mps 711 mmHg 93%
    07:00 +11°C° 0.5 mm 1 mps 711 mmHg 94%
    08:00 +10°C° 1.4 mm 2 mps 711 mmHg 94%
    09:00 +10°C° 1.4 mm 2 mps 711 mmHg 94%
    10:00 +10°C° 1.4 mm 2 mps 711 mmHg 94%
    11:00 +10°C° 1.3 mm 2 mps 711 mmHg 95%
    12:00 +9°C° 1.3 mm 2 mps 711 mmHg 95%
    13:00 +9°C° 1.3 mm 2 mps 711 mmHg 95%
    14:00 +9°C° 1.7 mm 2 mps 711 mmHg 95%
    15:00 +8°C° 1.7 mm 2 mps 711 mmHg 95%
    16:00 +8°C° 1.7 mm 2 mps 712 mmHg 95%
    17:00 +8°C° 0.6 mm 2 mps 712 mmHg 95%
    18:00 +8°C° 0.6 mm 2 mps 713 mmHg 96%
    19:00 +7°C° 0.6 mm 2 mps 713 mmHg 96%
    20:00 +7°C° 0.3 mm 2 mps 713 mmHg 95%
    21:00 +7°C° 0.3 mm 2 mps 714 mmHg 95%
    22:00 +7°C° 0.3 mm 3 mps 714 mmHg 95%
    23:00 +7°C° 0.2 mm 3 mps 714 mmHg 95%

    23 October, Monday

    Time Temperature Precipitation Wind Pressure Humidity
    00:00 +5°C° 0.2 mm 3 mps 714 mmHg 95%
    01:00 +5°C° 0.2 mm 3 mps 715 mmHg 95%
    02:00 +5°C° 0.2 mm 3 mps 715 mmHg 95%
    03:00 +5°C° 0.2 mm 3 mps 715 mmHg 95%
    04:00 +5°C° 0.2 mm 3 mps 715 mmHg 95%
    05:00 +5°C° 0.2 mm 3 mps 715 mmHg 95%
    06:00 +5°C° 0.2 mm 2 mps 716 mmHg 95%
    07:00 +5°C° 0.2 mm 2 mps 716 mmHg 96%
    08:00 +6°C° 0.1 mm 2 mps 716 mmHg 92%
    09:00 +7°C° 0.1 mm 3 mps 716 mmHg 89%
    10:00 +7°C° 0.1 mm 3 mps 717 mmHg 86%
    11:00 +8°C° 0.1 mm 3 mps 716 mmHg 83%
    12:00 +9°C° 0.1 mm 3 mps 716 mmHg 79%
    13:00 +9°C° 0.1 mm 2 mps 716 mmHg 76%
    14:00 +9°C° 0 mm 2 mps 716 mmHg 78%
    15:00 +9°C° 0 mm 2 mps 716 mmHg 80%
    16:00 +8°C° 0 mm 2 mps 716 mmHg 82%
    17:00 +8°C° 0 mm 1 mps 716 mmHg 85%
    18:00 +7°C° 0 mm 1 mps 717 mmHg 89%
    19:00 +6°C° 0 mm 1 mps 717 mmHg 93%
    20:00 +5°C° 0 mm 1 mps 717 mmHg 92%
    21:00 +5°C° 0 mm 1 mps 717 mmHg 92%
    22:00 +5°C° 0 mm 1 mps 718 mmHg 92%
    23:00 +5°C° 0 mm 1 mps 717 mmHg 90%
    Show more